{"data":{"norad_id":63918,"intl_designator":"2025-096A","name":"YAOGAN-40 02A","alt_names":[],"object_type":"PAYLOAD","status":"ACTIVE","operator":null,"country":"PRC","launch_date":"2025-05-11","launch_site_code":"TAISC","launch_vehicle":null,"mission":null,"orbit_class":"UNKNOWN","rcs_meters":null,"size_class":null,"mass_kg":null,"dimensions":null,"purposes":[],"wikipedia_slug":null,"has_3d_model":false,"image_url":null,"decayed_at":null,"tle_current":{"epoch":"2026-05-25T04:28:11.530848Z","epoch_age_seconds":49178,"freshness":"FRESH","line1":"1 63918U 25096A   26145.18624457  .00000079  00000+0  32834-4 0  9993","line2":"2 63918  85.9969 198.2714 0002455 105.2084 254.9371 14.12442927 53323","mean_motion":14.12442927,"eccentricity":0.0002455,"inclination_deg":85.9969,"raan_deg":198.2714,"arg_perigee_deg":105.2084,"mean_anomaly_deg":254.9371,"bstar":3.2834e-5,"rev_number":5332,"period_min":101.95102205358,"perigee_km":849.24933329919,"apogee_km":852.79885139553,"semimajor_km":7229.1610923474,"source":"CELESTRAK","updated_at":"2026-05-25T13:38:04.084424Z"}}}